Погода в Мариинске

Погода в Мариинске : погода сейчас, прогноз погоды и архив. Всё, что Вы хотите узнать о погоде в Мариинске!

Хотите узнать прогноз погоды в Мариинске? Тогда Вам сюда: Погода в Мариинске

Поиск расширенной информации на нашем сайте:

Другие новости

Новости СМИ2

Главная страница сайта

Новости сайта

03.07.2017

Напоминаем, что на нашем специализированном сайте Метеоцентр.Азия вы можете получить высокодетализированные автоматические прогнозы погоды по пунктам России, СНГ и мира в авиационном формате (включающие направление и скорость ветра, видимость, явления погоды, количество и форму облачности, нижнюю и верхнюю границу облачности).


Погода в Мариинске - сегодня

Время (UTC), дата Ветер
(°,м/с) 
Видим.   Явления Облачность Т
(°С)
Тd
(°С)
f(%) Тe
(°С)
Pmin
(гПа)
dP
(гПа)
Po
(мм)
O2
(г/м3)
Тmin Tmax R s Состояние
почвы
09 17.08.17 230 (ЮЗ) 20000 м    10/8 600 м кучево-дожд., верхняя 
[Cb calv|Ci fib]
+20.7 +9.5 49 +21  1015.4  -0.8  749  279           
12 17.08.17 270 (З) 20000 м    10/6 600 м кучево-дожд., верхняя 
[Cb calv|Ci fib]
+19.2 +8.5 50 +21  1015.4  -0.1  749  281    +21.9       
15 17.08.17 тихо ()   20000 м    9/4 600 м кучево-дожд., средняя 
[Cb calv|Ac trans]
+15.5 +11.4 77 +19  1015.2  -0.5  749  283           
18 17.08.17 тихо ()   20000 м    10/4 600 м кучево-дожд., средняя, верхняя 
[Cb calv|Ac trans|Ci sp]
+14.5 +11.9 84 +18  1015.3  0.1  749  284           
21 17.08.17 тихо ()   20000 м    8/3 600 м кучево-дожд., верхняя 
[Cb calv|Ci sp]
+13.4 +11.5 88 +17  1015.3  -0.1  749  285           
00 18.08.17 тихо ()   20000 м    10/10 600 м кучево-дожд. 
[Cb calv]
+13.6 +11.3 86 +17  1015.1  -0.2  748  285  +12.2        сухая 
03 18.08.17 180 (Ю) 20000 м    9/8 600 м кучево-дожд., верхняя 
[Cb calv|Ci sp]
+16.2 +9.9 66 +19  1014.9  748  283           
06 18.08.17 210 (ЮЗ) 20000 м    8/6 600 м кучево-дожд., верхняя 
[Cb calv|Ci sp]
+21.2 +9.7 48 +22  1014.4  -0.2  748  278           
09 18.08.17 тихо ()   20000 м    10/8 1000 м кучево-дожд., верхняя 
[Cb calv|Ci fib]
+22.2 +10.4 47 +24  1012.6  -1.8  747  276           
12 18.08.17 350 (С) 10 км  слаб. ливневой дождь{гроза}  10/10 600 м кучево-дожд. 
[Cb calv]
+15 +14.3 96 +24  1013.9  0.9  748  283    +22.5     
15 18.08.17 тихо ()   10 км  слаб. ливневой дождь  10/8 600 м кучево-дожд., средняя 
[Cb calv|Ac As]
+14.9 +13.7 93 +21  1014.2  0.3  748  283           
18 18.08.17 тихо ()   20000 м  {ливн. осадки}  8/6 600 м кучево-дожд., средняя 
[Cb calv|Ac trans]
+14.2 +13.7 97 +21  1013.9  -0.3  748  284           
21 18.08.17 тихо ()   1000 м  дымка  5/3 600 м кучево-дожд., верхняя 
[Cb calv|Ci fib]
+13.5 +13.3 99 +19  1013.9  -0.1  748  284           
00 19.08.17 тихо ()   1000 м  в посл. час туман  10/10 300 м 
[St]
+14.1 +13.6 97 +21  1013.5  -0.4  747  284  +13.4      влажная 
03 19.08.17 220 (ЮЗ) 10 км  гроза, ливневой дождь  10/10 600 м кучево-дожд. 
[Cb cap]
+14 +13.8 99 +22  1013.1  -0.4  747  283  +13.3         
06 19.08.17 290 (З) 20000 м  в посл. час ливневой дождь{гроза}  9/9 600 м кучево-дожд. 
[Cb calv]
+15.5 +14.6 94 +24  1013.4  0.4  747  282           
09 19.08.17 290 (З) 20000 м  в посл. час ливневой дождь  9/8 600 м кучево-дожд., верхняя 
[Cb calv|Ci fib]
+15.7 +12.2 80 +20  1013.8  0.4  748  282           
12 19.08.17 310 (СЗ) 3{10}  20000 м  в посл. час ливневой дождь  10/10 600 м кучево-дожд. 
[Cb calv]
+13.6 +13.1 97 +20  1015.8  1.9  749  285    +16.9  12     
15 19.08.17 310 (СЗ) 20000 м    10/10 600 м кучево-дожд. 
[Cb calv]
+13.1 +11.6 91 +17  1016.3  0.5  749  286           
18 19.08.17 320 (СЗ) 20000 м    10/10 600 м кучево-дожд. 
[Cb calv]
+12.4 +10.7 89 +16  1016.5  0.1  749  287           
21 19.08.17 310 (СЗ) 20000 м    8/5 600 м кучево-дожд., верхняя 
[Cb calv|Ci fib]
+11.2 +9.8 91 +13  1016.7  0.2  750  288           
00 20.08.17 290 (З) 20000 м  {ливн. осадки}  10/8 600 м кучево-дожд., верхняя 
[Cb calv|Ci sp]
+10.2 +8.6 90 +11  1017.7  0.8  750  290  +10.1    0.4    влажная 
03 20.08.17 310 (СЗ) 20000 м    10/6 600 м кучево-дожд., средняя, верхняя 
[Cb calv|Ac trans|Ci sp]
+12.8 +9.5 80 +14  1018.6  1.1  751  287           
06 20.08.17 290 (З) 20000 м    10/3 600 м кучево-дожд., верхняя 
[Cb calv|Ci sp]
+16.4 +7.4 55 +17  1018.3  -0.1  751  284           
09 20.08.17 290 (З) 20000 м    10/8 600 м кучево-дожд., верхняя 
[Cb calv|Ci sp]
+17 +6.5 50 +17  1017.9  -0.4  751  284           
Время (UTC), дата Ветер
(°,м/с) 
Видим.   Явления Облачность Т
(°С)
Тd
(°С)
f(%) Тe
(°С)
Pmin
(гПа)
dP
(гПа)
Po
(мм)
O2
(г/м3)
Тmin Tmax R s Состояние
почвы

Для получения пояснительной информации подведите курсор к названию столбца.

ПОГОДА в Мариинске - архив

Всё, что Вы хотите узнать о погоде в Мариинске - удобно и подробно!

Выберите нужную дату (начиная с 1 января 2015* года) и нажмите кнопку "Найти".
Будут отображены архивные сводки погоды по пункту Мариинск, начиная с указанной даты.


Отображать данные в формате CSV (для использования в таблицах Excel)


Внимание! Наш архив погоды предназначен исключительно для личного некоммерческого использования в познавательных целях. Если Вам необходимы официальные справки о состоянии погоды (для производственных, юридических, коммерческих и т.п. целей), обращайтесь в органы Росгидромета.

*Примечание: данная дата относится к архиву по метеостанциям СССР (Россия, СНГ, Балтия).
Архив по метеостанциям Зарубежной Европы и Азии (кроме Китая) хранится 10 дней, по другим регионам земного шара (Китай, Африка, Америка, Австралия, Океания) - 1 день.

Мариинск - район местоположения метеостанции


Название, широта, долгота, высота метеостанции:
Мариинск 56.2°ш. 87.8°д. 140 м над ур. моря [Российская Федерация]

Дополнительная информация

В oтличие oт бoльшинства пoгoдных сайтoв мы публикуем пoдрoбную метеoинфoрмацию в детальнoм прoфессиoнальнoм фoрмате.

Характеристики температуры и влажнoсти вoздуха измеряются на высoте 2 м в тени вдали oт зданий и деревьев.
Скoрoсть ветра измеряется на высoте 10 м (на урoвне рoста челoвека скoрoсть ветра ниже в 1.5-2 раза). Если метеoстанция нахoдится в гoрoде или в лесу, тo скoрoсть ветра занижена на 2-4 м/с пo сравнению с oткрытым местoм. Скoрoсть ветра над акватoриями крупных рек и oзёр, а также на вершинах хoлмoв на 2-5 м/с выше, чем в oбычных услoвиях.
Атмoсфернoе давление в разных тoчках местнoсти мoжет значительнo oтличаться oт давления на метеoстанции, в зависимoсти oт услoвий рельефа (при пoдъёме на 10 м давление пoнижается примернo на 1 мм рт.ст.).